Regional Weather Roundup
Issued by NWS

Home | Current Version | Previous Version | Graphics & Text | Print | Product List | Glossary On
Versions: 1 2 3 4 5 6 7 8 9 10 11 12 13 14 15 16 17 18 19 20 21 22 23 24 25 26 27 28 29 30 31 32 33 34 35 36 37 38 39 40 41 42 43 44 45 46 47 48
000
ASUS45 KSLC 221710
RWRUT

UTAH REGIONAL WEATHER ROUNDUP
NATIONAL WEATHER SERVICE SALT LAKE CITY UT
1100 AM MDT TUE JUL 22 2014

UTZ001>011-023>025-221800-

NORTHERN UTAH

CITY           SKY/WX    TMP DP  RH WIND       PRES   REMARKS
HILL AFB       SUNNY     81  42  24 E9        30.27S
LOGAN          NOT AVBL
OGDEN          SUNNY     84  37  18 S8        30.25R
PROVO AIRPORT  SUNNY     84  37  18 E6        30.27S
SALT LAKE CITY PTSUNNY   87  34  15 VRB3      30.22R
VERNAL         SUNNY     79  31  17 SE5       30.32S
WENDOVER       SUNNY     81  45  28 SE7       30.23S
HEBER CITY     SUNNY     75  32  20 CALM      30.33F
WEST JORDAN    SUNNY     88  45  22 SE16      30.25S

$$

UTZ012>022-026-027-221800-

SOUTHERN UTAH

CITY           SKY/WX    TMP DP  RH WIND       PRES   REMARKS
BRYCE CANYON   SUNNY     79  30  16 SE10      30.48S
CEDAR CITY     SUNNY     83  22  10 VRB3      30.31S
MILFORD        SUNNY     84  27  12 S10       30.28R
MOAB/CYNLANDS  SUNNY     88  25  10 SE6       30.23F
PRICE          SUNNY     86  24  10 VRB6      30.35S
ST GEORGE      SUNNY     86  30  13 CALM      30.15F
KANAB            N/A     84  30  14 SW3       30.31F

$$

REGIONAL REPORTS     COLORADO/ARIZONA

CITY           SKY/WX    TMP DP  RH WIND       PRES   REMARKS
CRAIG, CO      SUNNY     78  34  20 VRB3      30.39F
GRAND JUNCTION SUNNY     84  31  14 SE8       30.29S
RIFLE          SUNNY     81  36  19 N5        30.35F
MONTROSE       SUNNY     81  40  23 N6        30.37F
CORTEZ         SUNNY     89  31  12 VRB3      30.34S
PAGE, AZ       SUNNY     87  30  13 N3        30.24S
GRAND CANYON   SUNNY     84  31  14 VRB7      30.41S
KINGMAN        SUNNY     91  38  15 CALM      30.16S
FLAGSTAFF      PTSUNNY   80  32  17 VRB7      30.45S

$$

REGIONAL REPORTS    NEVADA/IDAHO/WYOMING

CITY           SKY/WX    TMP DP  RH WIND       PRES   REMARKS
LAS VEGAS, NV  SUNNY     93  31  11 CALM      30.03R
ELY            SUNNY     81  27  14 S14G20    30.33F
ELKO           SUNNY     74  47  38 N7        30.25F
POCATELLO, ID  SUNNY     78  55  44 N8        30.26F
BURLEY         MOSUNNY   76  56  49 VRB7      30.22S
EVANSTON, WY   SUNNY     73  36  25 W7        30.44R
ROCK SPRINGS   SUNNY     78  35  21 NW6       30.41S

$$



USA.gov is the U.S. government's official web portal to all federal, state and local government web resources and services.